Marion, OH

9:10 AM EDT on July 26, 2016 (GMT -0400)
Marion Municipal

Weather History for KMNN - October, 2012

Change the Weather History Date:

Thursday, October 4, 2012

  Actual Average (KDLZ) Record (KDLZ)
Temperature  
Mean Temperature 62 °F -  
Max Temperature 75 °F 69 °F 87 °F (1951)
Min Temperature 51 °F 44 °F 25 °F (1987)
Degree Days  
Heating Degree Days 3    
Growing Degree Days 12 (Base 50)    
Moisture  
Dew Point 52 °F    
Average Humidity 70    
Maximum Humidity 92    
Minimum Humidity 43    
Precipitation  
Precipitation 0.00 in - - ()
Sea Level Pressure  
Sea Level Pressure 30.15 in    
Wind  
Wind Speed 8 mph (SSW)    
Max Wind Speed 17 mph    
Max Gust Speed 25 mph    
Visibility 10 miles    
Events      
Averages and records for this station are not official NWS values.
T = Trace of Precipitation, MM = Missing Value Source: NWS Daily Summary

Daily Weather History Graph

Daily Weather History Graph

Search for Another Location

Airport or City:

Trip Planner

Search our weather history database for the weather conditions in past years. The results will help you decide how hot, cold, wet, or windy it might be!

Date:

Astronomy

Oct. 04, 2012 Rise Set
Actual Time 7:32 AM EDT 7:08 PM EDT
Civil Twilight 7:05 AM EDT 7:35 PM EDT
Nautical Twilight 6:33 AM EDT 8:07 PM EDT
Astronomical Twilight 6:01 AM EDT 8:39 PM EDT
Moon 9:42 PM EDT (10/4) 11:49 AM EDT (10/4)
Length of Visible Light 12h 30m
Length of Day
11h 36m
Waning Gibbous, 82% of the Moon is Illuminated
Oct 4
Waning Gibbous
Oct 8
Last Quarter
Oct 15
New
Oct 21
First Quarter
Oct 29
Full

Hourly Weather History & Observations

Time (EDT) Temp. Dew Point Humidity Pressure Visibility Wind Dir Wind Speed Gust Speed Precip Events Conditions
12:53 AM 55.0 °F 52.0 °F 89% 30.15 in 10.0 mi South 5.8 mph - N/A   Clear
1:53 AM 55.9 °F 52.0 °F 87% 30.16 in 10.0 mi SSW 6.9 mph - N/A   Clear
2:53 AM 54.0 °F 51.1 °F 90% 30.16 in 10.0 mi South 5.8 mph - N/A   Clear
3:53 AM 54.0 °F 50.0 °F 86% 30.15 in 10.0 mi South 6.9 mph - N/A   Clear
4:53 AM 53.1 °F 50.0 °F 89% 30.16 in 10.0 mi SSW 6.9 mph - N/A   Clear
5:53 AM 53.1 °F 50.0 °F 89% 30.16 in 10.0 mi South 6.9 mph - N/A   Clear
6:53 AM 51.1 °F 48.9 °F 92% 30.18 in 9.0 mi South 6.9 mph - N/A   Clear
7:53 AM 53.1 °F 50.0 °F 89% 30.18 in 8.0 mi South 8.1 mph - N/A   Clear
8:53 AM 55.0 °F 52.0 °F 89% 30.19 in 8.0 mi South 5.8 mph - N/A   Partly Cloudy
9:53 AM 61.0 °F 53.1 °F 75% 30.18 in 10.0 mi SSW 9.2 mph 17.3 mph N/A   Scattered Clouds
10:53 AM 63.0 °F 54.0 °F 72% 30.19 in 10.0 mi SW 10.4 mph - N/A   Partly Cloudy
11:53 AM 69.1 °F 54.0 °F 58% 30.18 in 10.0 mi SW 12.7 mph 20.7 mph N/A   Clear
12:53 PM 69.1 °F 53.1 °F 57% 30.18 in 10.0 mi WSW 12.7 mph - N/A   Overcast
1:53 PM 71.1 °F 53.1 °F 53% 30.16 in 10.0 mi West 17.3 mph 25.3 mph N/A   Overcast
2:53 PM 73.0 °F 52.0 °F 48% 30.13 in 10.0 mi West 10.4 mph - N/A   Partly Cloudy
3:53 PM 73.9 °F 51.1 °F 45% 30.12 in 10.0 mi WSW 9.2 mph - N/A   Partly Cloudy
4:53 PM 73.9 °F 50.0 °F 43% 30.11 in 10.0 mi West 11.5 mph 17.3 mph N/A   Clear
5:53 PM 73.0 °F 50.0 °F 44% 30.12 in 10.0 mi West 11.5 mph 18.4 mph N/A   Partly Cloudy
6:53 PM 71.1 °F 51.1 °F 49% 30.12 in 10.0 mi WSW 8.1 mph - N/A   Clear
7:53 PM 64.0 °F 51.1 °F 63% 30.12 in 10.0 mi SSW 5.8 mph - N/A   Clear
8:53 PM 62.1 °F 52.0 °F 70% 30.12 in 10.0 mi South 6.9 mph - N/A   Clear
9:53 PM 64.0 °F 52.0 °F 65% 30.12 in 10.0 mi SSW 9.2 mph - N/A   Clear
10:53 PM 61.0 °F 53.1 °F 75% 30.12 in 10.0 mi SSW 6.9 mph - N/A   Clear
11:53 PM 62.1 °F 53.1 °F 72% 30.11 in 10.0 mi SSW 9.2 mph - N/A   Clear